Terminal Aerodrome Forecast
Issued by NWS

Home | Current Version | Previous Version | Text Only | Print | Product List | Glossary On
Versions: 1 2 3 4 5 6 7 8 9 10 11 12 13 14
000
FTUS45 KABQ 212328
TAFGUP
TAF
KGUP 212328Z 2200/2224 24010KT P6SM VCTS BKN070CB
      TEMPO 2200/2203 VRB25G35KT -TSRA BKN060CB
     FM220300 14010KT P6SM VCSH BKN060
     FM220600 VRB06KT P6SM BKN100
     FM221500 VRB06KT P6SM SCT120
     FM221900 06007KT P6SM VCTS SCT070CB SCT150
      TEMPO 2221/2224 VRB25G35KT BKN060CB=

USA.gov is the U.S. government's official web portal to all federal, state and local government web resources and services.